| time (UTC) | temp F | wind direction | speed knots | gust knots | rain 1hr in | rain 24hr in | rain mn in | humidity % | barometer mb |
| 20260508011514 | 45 | 258 | 0.0 | 4.3 | 0.00 | 0.88 | 0.63 | 64 | 1003.2 |
| 20260508010015 | 46 | 257 | 0.0 | 5.2 | 0.00 | 0.88 | 0.63 | 63 | 1003.0 |
| 20260508004513 | 46 | 258 | 0.0 | 4.3 | 0.00 | 0.97 | 0.63 | 63 | 1003.0 |
| 20260508003014 | 46 | 360 | 0.9 | 8.7 | 0.00 | 0.97 | 0.63 | 65 | 1002.8 |
| 20260508001512 | 46 | 279 | 1.7 | 6.1 | 0.00 | 0.97 | 0.63 | 66 | 1002.5 |
| 20260508000014 | 47 | 360 | 2.6 | 11.3 | 0.00 | 0.97 | 0.63 | 67 | 1002.5 |
| 20260507234513 | 48 | 360 | 7.0 | 11.3 | 0.00 | 1.06 | 0.63 | 65 | 1002.4 |
| 20260507233011 | 48 | 360 | 7.8 | 14.8 | 0.00 | 1.06 | 0.63 | 63 | 1002.2 |
| 20260507231510 | 49 | 360 | 2.6 | 11.3 | 0.00 | 1.06 | 0.63 | 61 | 1002.0 |
| 20260507230013 | 49 | 261 | 5.2 | 8.7 | 0.00 | 1.06 | 0.63 | 61 | 1001.9 |
| 20260507224513 | 49 | 360 | 8.7 | 13.0 | 0.00 | 1.15 | 0.63 | 63 | 1001.8 |
| 20260507223014 | 49 | 360 | 4.3 | 8.7 | 0.00 | 1.15 | 0.63 | 68 | 1001.8 |
| 20260507221508 | 48 | 360 | 7.8 | 13.0 | 0.00 | 1.15 | 0.63 | 68 | 1001.9 |
| 20260507220007 | 48 | 360 | 6.1 | 13.0 | 0.00 | 1.15 | 0.63 | 67 | 1001.8 |
| 20260507214519 | 49 | 290 | 10.4 | 15.6 | 0.00 | 1.25 | 0.63 | 67 | 1001.6 |
| 20260507213006 | 49 | 360 | 12.2 | 20.9 | 0.00 | 1.25 | 0.63 | 64 | 1001.4 |
| 20260507211507 | 51 | 360 | 12.2 | 18.2 | 0.00 | 1.25 | 0.63 | 61 | 1001.2 |
| 20260507210005 | 53 | 360 | 7.8 | 12.2 | 0.00 | 1.25 | 0.63 | 53 | 1000.8 |
| 20260507204505 | 53 | 360 | 6.1 | 13.0 | 0.00 | 1.32 | 0.63 | 56 | 1000.7 |
| 20260507203004 | 54 | 320 | 7.8 | 13.9 | 0.00 | 1.32 | 0.63 | 55 | 1000.6 |
| 20260507201503 | 54 | 360 | 6.1 | 9.6 | 0.00 | 1.32 | 0.63 | 59 | 1000.4 |
| 20260507200003 | 54 | 360 | 7.8 | 14.8 | 0.00 | 1.32 | 0.63 | 54 | 1000.4 |
| 20260507194503 | 55 | 360 | 4.3 | 7.8 | 0.00 | 1.38 | 0.63 | 52 | 1000.4 |
| 20260507193002 | 55 | 252 | 0.0 | 0.9 | 0.00 | 1.38 | 0.63 | 49 | 1000.3 |
| 20260507191501 | 56 | 217 | 5.2 | 7.8 | 0.00 | 1.38 | 0.63 | 46 | 1000.3 |
| 20260507184604 | 55 | 267 | 2.6 | 7.8 | 0.00 | 1.40 | 0.63 | 45 | 1000.3 |
| 20260507183058 | 55 | 360 | 4.3 | 10.4 | 0.00 | 1.40 | 0.63 | 44 | 1000.5 |
| 20260507181557 | 55 | 28 | 0.0 | 7.8 | 0.00 | 1.40 | 0.63 | 50 | 1000.6 |
| 20260507180057 | 56 | 331 | 6.1 | 9.6 | 0.00 | 1.40 | 0.63 | 50 | 1000.6 |
| 20260507174605 | 55 | 233 | 1.7 | 12.2 | 0.00 | 1.44 | 0.63 | 52 | 1000.8 |
| 20260507173102 | 55 | 360 | 7.0 | 12.2 | 0.00 | 1.44 | 0.63 | 52 | 1001.0 |
| 20260507171603 | 54 | 320 | 0.0 | 13.0 | 0.00 | 1.44 | 0.63 | 57 | 1001.1 |
| 20260507170051 | 55 | 360 | 0.9 | 11.3 | 0.01 | 1.44 | 0.63 | 52 | 1001.3 |
| 20260507164548 | 54 | 338 | 7.0 | 14.8 | 0.01 | 1.45 | 0.63 | 55 | 1001.4 |
| 20260507163047 | 54 | 290 | 6.1 | 10.4 | 0.01 | 1.45 | 0.63 | 59 | 1001.6 |
| 20260507161545 | 53 | 290 | 5.2 | 11.3 | 0.01 | 1.45 | 0.63 | 59 | 1001.6 |
| 20260507160047 | 53 | 327 | 9.6 | 13.0 | 0.00 | 1.44 | 0.62 | 63 | 1001.7 |
| 20260507154543 | 52 | 360 | 6.1 | 10.4 | 0.00 | 1.44 | 0.62 | 65 | 1002.0 |
| 20260507153041 | 52 | 360 | 5.2 | 10.4 | 0.00 | 1.44 | 0.62 | 70 | 1002.1 |
| 20260507151538 | 51 | 336 | 7.8 | 11.3 | 0.01 | 1.44 | 0.62 | 70 | 1002.3 |
| 20260507150036 | 50 | 360 | 6.1 | 9.6 | 0.02 | 1.44 | 0.62 | 70 | 1002.2 |
| 20260507144547 | 49 | 360 | 2.6 | 9.6 | 0.03 | 1.44 | 0.62 | 76 | 1002.2 |
| 20260507143033 | 48 | 355 | 4.3 | 10.4 | 0.03 | 1.44 | 0.62 | 76 | 1002.3 |
| 20260507141531 | 48 | 360 | 7.0 | 11.3 | 0.03 | 1.43 | 0.61 | 80 | 1002.4 |
| 20260507140027 | 48 | 325 | 5.2 | 11.3 | 0.03 | 1.42 | 0.60 | 82 | 1002.7 |
| 20260507134529 | 46 | 360 | 6.1 | 9.6 | 0.03 | 1.41 | 0.59 | 83 | 1002.7 |
| 20260507133027 | 45 | 325 | 6.1 | 9.6 | 0.04 | 1.41 | 0.59 | 83 | 1002.8 |
| 20260507131525 | 45 | 326 | 6.1 | 8.7 | 0.05 | 1.40 | 0.57 | 84 | 1003.0 |
| 20260507130025 | 44 | 360 | 4.3 | 9.6 | 0.05 | 1.39 | 0.56 | 86 | 1003.0 |
| 20260507124524 | 44 | 360 | 7.0 | 9.6 | 0.05 | 1.38 | 0.56 | 86 | 1002.9 |
| 20260507123023 | 43 | 360 | 4.3 | 12.2 | 0.04 | 1.36 | 0.54 | 87 | 1003.3 |
| 20260507121522 | 43 | 360 | 7.8 | 11.3 | 0.04 | 1.35 | 0.53 | 88 | 1003.2 |
| 20260507120021 | 42 | 320 | 7.0 | 11.3 | 0.04 | 1.34 | 0.52 | 89 | 1003.0 |
| 20260507114521 | 42 | 360 | 6.1 | 13.0 | 0.04 | 1.33 | 0.51 | 88 | 1002.9 |
| 20260507113027 | 42 | 360 | 4.3 | 9.6 | 0.04 | 1.32 | 0.50 | 89 | 1002.9 |
| 20260507111533 | 42 | 360 | 4.3 | 8.7 | 0.05 | 1.31 | 0.49 | 89 | 1003.1 |
| 20260507110019 | 42 | 269 | 2.6 | 6.1 | 0.05 | 1.30 | 0.48 | 89 | 1003.1 |
| 20260507104520 | 41 | 278 | 3.5 | 9.6 | 0.05 | 1.29 | 0.47 | 90 | 1003.1 |
| 20260507103016 | 41 | 360 | 4.3 | 8.7 | 0.04 | 1.27 | 0.45 | 90 | 1002.8 |
| 20260507101514 | 41 | 326 | 3.5 | 10.4 | 0.05 | 1.26 | 0.44 | 91 | 1002.3 |
| 20260507100018 | 41 | 360 | 3.5 | 9.6 | 0.05 | 1.25 | 0.43 | 90 | 1002.1 |
| 20260507094512 | 41 | 360 | 5.2 | 8.7 | 0.06 | 1.25 | 0.42 | 91 | 1002.1 |
| 20260507093019 | 41 | 360 | 5.2 | 9.6 | 0.05 | 1.23 | 0.40 | 90 | 1002.3 |
| 20260507091510 | 42 | 360 | 7.8 | 16.5 | 0.06 | 1.22 | 0.39 | 90 | 1002.1 |
| 20260507090017 | 42 | 326 | 8.7 | 14.8 | 0.07 | 1.21 | 0.38 | 89 | 1002.3 |
| 20260507084504 | 42 | 360 | 5.2 | 16.5 | 0.06 | 1.19 | 0.36 | 90 | 1002.2 |
| 20260507083002 | 43 | 360 | 7.8 | 13.9 | 0.07 | 1.18 | 0.35 | 90 | 1001.8 |
| 20260507081602 | 43 | 286 | 7.8 | 12.2 | 0.07 | 1.15 | 0.33 | 92 | 1001.8 |
| 20260507080059 | 44 | 329 | 4.3 | 7.8 | 0.07 | 1.13 | 0.31 | 92 | 1001.6 |
| 20260507074558 | 44 | 360 | 3.5 | 9.6 | 0.07 | 1.12 | 0.30 | 92 | 1002.0 |
| 20260507073102 | 44 | 360 | 0.0 | 3.5 | 0.07 | 1.11 | 0.28 | 93 | 1001.9 |
| 20260507073002 | 44 | 360 | 0.0 | 4.3 | 0.07 | 1.11 | 0.28 | 93 | 1001.9 |
| 20260507071557 | 44 | 360 | 5.2 | 13.0 | 0.07 | 1.09 | 0.26 | 92 | 1001.6 |
| 20260507070059 | 44 | 325 | 6.1 | 10.4 | 0.07 | 1.07 | 0.24 | 93 | 1001.4 |
| 20260507064505 | 44 | 360 | 7.0 | 11.3 | 0.07 | 1.05 | 0.22 | 93 | 1000.8 |
| 20260507063053 | 45 | 339 | 5.2 | 10.4 | 0.08 | 1.04 | 0.21 | 93 | 1000.9 |
| 20260507061552 | 45 | 360 | 6.1 | 14.8 | 0.08 | 1.02 | 0.19 | 93 | 1001.3 |
| 20260507060056 | 45 | 320 | 9.6 | 12.2 | 0.08 | 1.00 | 0.17 | 93 | 1001.3 |
| 20260507054551 | 45 | 325 | 8.7 | 17.4 | 0.09 | 0.98 | 0.15 | 93 | 1001.3 |
| 20260507053053 | 45 | 360 | 11.3 | 17.4 | 0.09 | 0.96 | 0.13 | 93 | 1001.3 |
| 20260507051548 | 45 | 360 | 12.2 | 18.2 | 0.09 | 0.94 | 0.11 | 94 | 1001.2 |
| 20260507050046 | 46 | 360 | 13.9 | 20.0 | 0.09 | 0.92 | 0.09 | 94 | 1001.2 |
| 20260507044555 | 46 | 360 | 7.0 | 14.8 | 0.08 | 0.89 | 0.06 | 94 | 1001.3 |
| 20260507043038 | 46 | 326 | 6.1 | 9.6 | 0.08 | 0.87 | 0.04 | 94 | 1000.8 |
| 20260507041535 | 47 | 340 | 4.3 | 7.8 | 0.08 | 0.85 | 0.02 | 94 | 1000.9 |
| 20260507040034 | 47 | 36 | 2.6 | 7.0 | 0.08 | 0.83 | 0.00 | 94 | 1000.8 |
| 20260507034534 | 49 | 325 | 2.6 | 7.0 | 0.08 | 0.81 | 0.81 | 93 | 1000.9 |
| 20260507033028 | 52 | 193 | 0.0 | 0.0 | 0.08 | 0.79 | 0.79 | 95 | 1001.2 |
| 20260507031523 | 52 | 193 | 0.0 | 0.0 | 0.07 | 0.76 | 0.76 | 95 | 1001.5 |
| 20260507030028 | 52 | 185 | 0.0 | 3.5 | 0.07 | 0.74 | 0.74 | 95 | 1001.8 |
| 20260507024520 | 52 | 207 | 0.0 | 7.0 | 0.07 | 0.73 | 0.72 | 94 | 1002.1 |
| 20260507023020 | 52 | 195 | 4.3 | 10.4 | 0.08 | 0.72 | 0.71 | 94 | 1002.3 |
| 20260507021520 | 52 | 167 | 3.5 | 11.3 | 0.08 | 0.70 | 0.69 | 94 | 1002.5 |
| 20260507020015 | 52 | 221 | 7.0 | 11.3 | 0.08 | 0.68 | 0.67 | 94 | 1002.8 |
| 20260507014513 | 52 | 192 | 4.3 | 10.4 | 0.09 | 0.69 | 0.65 | 94 | 1003.1 |
| 20260507013010 | 53 | 205 | 6.1 | 14.8 | 0.09 | 0.67 | 0.63 | 94 | 1003.4 |